Rbgn^[z[y[W
メイン
   新天体発見情報
     Comet C/2018 E1 (ATLAS)
投稿するにはまず登録を

スレッド表示 | 新しいものから 前のトピック | 次のトピック | 下へ
投稿者 スレッド
佐藤裕久
投稿日時: 2018-3-23 22:09
モデレータ
登録日: 2005-6-12
居住地: 日本
投稿: 2505
オンライン
Comet C/2018 E1 (ATLAS)

3月10.2日UT、小惑星地球衝突最終警報システム Asteroid Terrestrial-impact Last Alert System 
(ATLAS)調査プログラムのコースに、ハワイ, HaleakalaにあるATLAS 0.5-m f/2 Schmidt望遠鏡で得
たCCD画像から小惑星らしい天体を発見した。
小惑星センターのPCCP webpageに公表後、佐藤英貴氏(東京都文京区, iTelescope天文台,3月11.4日UT, 
60秒露出10枚のスタック, 0.51-m f/6.8 アストログラフ, Siding Spring, 遠隔操作:10" のディスク
状のコマがあるが尾はない。6".5の円形範囲で測定したw-バンド全光度は16.9等であった)らCCD位置
観測者によって彗星状と観測された。
2015年8月11日、12日、10月3日、2016年8月6日、9日、9月6日、10月18に、1.8-m Pan-STARRS1望遠鏡
で得た発見前の観測があった。

発見位置は次のとおり、

     2018 UT             R.A. (2000) Decl.       Mag.
     Mar. 10.22671    4 35 56.46   -44 05 01.2   16.8
          10.22857    4 35 56.64   -44 04 58.5   17.6
          10.23184    4 35 56.96   -44 04 53.7   16.9
          10.23275    4 35 57.05   -44 04 52.4   16.9
          10.23321    4 35 57.12   -44 04 51.4   16.9
          10.24695    4 35 58.42   -44 04 30.4   17.6
          10.24787    4 35 58.58   -44 04 28.7   17.0
          10.24878    4 35 58.70   -44 04 27.6   16.9

楕円軌道要素と位置推算表は次のとおり、

Orbital elements:
    C/2018 E1 (ATLAS)
Epoch 2018 May 2.0 TT = JDT 2458240.5
T 2018 Apr. 17.32372 TT                                 MPCW
q   2.7054318            (2000.0)            P               Q
z  +0.0183558      Peri.  299.47240     -0.26852966     -0.80983341
 +/-0.0000000      Node   146.84068     +0.77844306     +0.13650119
e   0.9503397      Incl.   72.47971     -0.56737838     +0.57055874
From 133 observations 2015 Aug. 11-2018 Mar. 16, mean residual 0".3.

    C/2018 E1 (ATLAS)
Epoch 2018 Mar. 23.0 TT = JDT 2458200.5
T 2018 Apr. 17.32070 TT                                 MPCW
q   2.7054324            (2000.0)            P               Q
z  +0.0183481      Peri.  299.47131     -0.26851671     -0.80984306
 +/-0.0000000      Node   146.84122     +0.77844069     +0.13650752
e   0.9503604      Incl.   72.47943     -0.56738775     +0.57054352
From 133 observations 2015 Aug. 11-2018 Mar. 16, mean residual 0".3.

Ephemeris:
    C/2018 E1 (ATLAS)
Date    TT    R. A. (2000) Decl.     Delta      r     Elong.  Phase   m1
2018 02 14    03 57 09.1 -53 49 06   2.7643  2.7787    80.6    20.5  17.1
...
2018 03 01    04 20 25.4 -47 54 57   2.7434  2.7480    79.9    20.8  17.1
...
2018 03 09    04 33 50.2 -44 35 56   2.7420  2.7349    79.2    20.9  17.1
...
2018 03 15    04 44 13.8 -42 03 48   2.7465  2.7267    78.4    20.9  17.1
2018 03 16    04 45 59.1 -41 38 18   2.7477  2.7254    78.3    20.9  17.0
2018 03 17    04 47 44.8 -41 12 45   2.7491  2.7242    78.1    20.9  17.0
...
2018 03 23    04 58 25.9 -38 39 16   2.7605  2.7177    77.1    20.9  17.0
...
2018 03 31    05 12 54.8 -35 15 27   2.7841  2.7112    75.4    20.9  17.1
...
2018 04 15    05 40 28.3 -29 04 32   2.8552  2.7055    71.3    20.6  17.1

(CBET 4494、MPEC 2018-F10)

スレッド表示 | 新しいものから 前のトピック | 次のトピック | トップ

投稿するにはまず登録を
 
© 1999 Tsutomu Seki.